Morris, MN

4:37 AM CDT on April 29, 2017 (GMT -0500)
Morris Municipal

Weather History for KMOX - January, 2013

Change the Weather History Date:

Friday, January 18, 2013

  Actual Average Record
Temperature  
Mean Temperature 26 °F -  
Max Temperature 37 °F 16 °F 39 °F (2015)
Min Temperature 14 °F 1 °F -14 °F (1997)
Degree Days  
Heating Degree Days 40    
Moisture  
Dew Point 22 °F    
Average Humidity 85    
Maximum Humidity 100    
Minimum Humidity 70    
Precipitation  
Precipitation 0.00 in - - ()
Sea Level Pressure  
Sea Level Pressure 29.80 in    
Wind  
Wind Speed 13 mph (SSW)    
Max Wind Speed 22 mph    
Max Gust Speed -    
Visibility 10 miles    
Events      
Averages and records for this station are not official NWS values.
T = Trace of Precipitation, MM = Missing Value Source: NWS Daily Summary

Daily Weather History Graph

Daily Weather History Graph

Search for Another Location

Airport or City:

Trip Planner

Search our weather history database for the weather conditions in past years. The results will help you decide how hot, cold, wet, or windy it might be!

Date:

Astronomy

Jan. 18, 2013 Rise Set
Actual Time 7:58 AM CST 5:11 PM CST
Civil Twilight 7:25 AM CST 5:43 PM CST
Nautical Twilight 6:48 AM CST 6:20 PM CST
Astronomical Twilight 6:13 AM CST 6:55 PM CST
Moon 11:12 AM CST (1/18) 12:26 AM CST (1/18)
Length of Visible Light 10h 18m
Length of Day
9h 12m
Waxing Crescent, 47% of the Moon is Illuminated
Jan 18
Waxing Crescent
Jan 18
First Quarter
Jan 26
Full
Feb 3
Last Quarter
Feb 10
New

Hourly Weather History & Observations

Time (CST) Temp. Windchill Dew Point Humidity Pressure Visibility Wind Dir Wind Speed Gust Speed Precip Events Conditions
12:10 AM 14.0 °F -1.4 °F 8.6 °F 79% 30.13 in 10.0 mi SE 15.0 mph - N/A   Overcast
12:30 AM 15.8 °F 0.3 °F 8.6 °F 73% 30.09 in 10.0 mi SE 16.1 mph - N/A   Overcast
12:50 AM 15.8 °F -0.2 °F 8.6 °F 73% 30.07 in 10.0 mi SE 17.3 mph - N/A   Overcast
1:08 AM 15.8 °F -0.6 °F 8.6 °F 73% 30.04 in 10.0 mi SE 18.4 mph - N/A   Scattered Clouds
1:30 AM 15.8 °F 0.3 °F 8.6 °F 73% 30.04 in 10.0 mi ESE 16.1 mph - N/A   Mostly Cloudy
1:50 AM 15.8 °F -0.2 °F 10.4 °F 79% 30.03 in 10.0 mi SE 17.3 mph - N/A   Scattered Clouds
2:10 AM 17.6 °F 1.7 °F 10.4 °F 73% 30.01 in 10.0 mi SE 18.4 mph - N/A   Mostly Cloudy
2:30 AM 17.6 °F 2.2 °F 12.2 °F 79% 30.00 in 10.0 mi SE 17.3 mph - N/A   Scattered Clouds
2:50 AM 19.4 °F 5.0 °F 14.0 °F 80% 29.99 in 10.0 mi SE 16.1 mph - N/A   Mostly Cloudy
3:10 AM 19.4 °F 2.8 °F 14.0 °F 80% 29.98 in 10.0 mi SE 21.9 mph - N/A   Overcast
3:30 AM 19.4 °F 6.6 °F 15.8 °F 86% 29.98 in 10.0 mi SE 12.7 mph - N/A   Mostly Cloudy
3:50 AM 19.4 °F 4.1 °F 15.8 °F 86% 29.95 in 10.0 mi SE 18.4 mph - N/A   Overcast
4:10 AM 19.4 °F 4.1 °F 17.6 °F 93% 29.92 in 10.0 mi SE 18.4 mph - N/A   Mostly Cloudy
4:30 AM 19.4 °F 5.0 °F 17.6 °F 93% 29.91 in 10.0 mi SE 16.1 mph - N/A   Scattered Clouds
4:50 AM 21.2 °F 6.8 °F 17.6 °F 86% 29.89 in 10.0 mi SE 17.3 mph - N/A   Scattered Clouds
5:10 AM 21.2 °F 6.8 °F 17.6 °F 86% 29.86 in 10.0 mi SSE 17.3 mph - N/A   Clear
5:30 AM 21.2 °F 6.8 °F 19.4 °F 93% 29.85 in 10.0 mi SE 17.3 mph - N/A   Clear
5:50 AM 21.2 °F 7.3 °F 19.4 °F 93% 29.84 in 10.0 mi SSE 16.1 mph - N/A   Clear
6:10 AM 21.2 °F 6.8 °F 19.4 °F 93% 29.82 in 10.0 mi SSE 17.3 mph - N/A   Scattered Clouds
6:30 AM 21.2 °F 8.9 °F 19.4 °F 93% 29.82 in 10.0 mi SSE 12.7 mph - N/A   Scattered Clouds
6:50 AM 21.2 °F 8.3 °F 19.4 °F 93% 29.80 in 10.0 mi SSE 13.8 mph - N/A   Clear
7:10 AM 23.0 °F 11.7 °F 19.4 °F 86% 29.78 in 10.0 mi SSE 11.5 mph - N/A   Scattered Clouds
7:30 AM 21.2 °F 8.9 °F 19.4 °F 93% 29.77 in 10.0 mi SSE 12.7 mph - N/A   Scattered Clouds
7:50 AM 21.2 °F 9.5 °F 19.4 °F 93% 29.77 in 7.0 mi SSE 11.5 mph - N/A   Clear
8:10 AM 21.2 °F 10.9 °F 19.4 °F 93% 29.77 in 7.0 mi SSE 9.2 mph - N/A   Clear
8:30 AM 21.2 °F 11.7 °F 19.4 °F 93% 29.77 in 7.0 mi SSE 8.1 mph - N/A   Clear
8:50 AM 21.2 °F 10.9 °F 19.4 °F 93% 29.75 in 7.0 mi SSE 9.2 mph - N/A   Clear
9:10 AM 23.0 °F 13.9 °F 19.4 °F 86% 29.75 in 7.0 mi SSE 8.1 mph - N/A   Clear
9:30 AM 24.8 °F 19.1 °F 21.2 °F 86% 29.77 in 10.0 mi South 4.6 mph - N/A   Clear
9:50 AM 24.8 °F 17.9 °F 21.2 °F 86% 29.76 in 10.0 mi SSE 5.8 mph - N/A   Clear
10:10 AM 26.6 °F 21.2 °F 21.2 °F 80% 29.76 in 10.0 mi SSW 4.6 mph - N/A   Clear
10:30 AM 28.4 °F 23.3 °F 23.0 °F 80% 29.75 in 10.0 mi South 4.6 mph - N/A   Clear
10:50 AM 30.2 °F 24.3 °F 24.8 °F 80% 29.74 in 10.0 mi SSW 5.8 mph - N/A   Clear
11:10 AM 32.0 °F 25.6 °F 24.8 °F 75% 29.74 in 10.0 mi WSW 6.9 mph - N/A   Clear
11:30 AM 35.6 °F 28.6 °F 26.6 °F 70% 29.73 in 10.0 mi WSW 9.2 mph - N/A   Clear
11:50 AM 35.6 °F 28.6 °F 26.6 °F 70% 29.73 in 10.0 mi West 9.2 mph - N/A   Clear
12:10 PM 35.6 °F 27.5 °F 26.6 °F 70% 29.71 in 10.0 mi West 11.5 mph - N/A   Clear
12:30 PM 35.6 °F 27.1 °F 28.4 °F 75% 29.72 in 10.0 mi West 12.7 mph - N/A   Clear
12:50 PM 37.4 °F 30.8 °F 28.4 °F 70% 29.71 in 10.0 mi WNW 9.2 mph - N/A   Clear
1:10 PM 37.4 °F 30.3 °F 28.4 °F 70% 29.70 in 10.0 mi WNW 10.4 mph - N/A   Clear
1:30 PM 37.4 °F 30.3 °F 28.4 °F 70% 29.70 in 10.0 mi WNW 10.4 mph - N/A   Clear
1:50 PM 37.4 °F 29.8 °F 30.2 °F 75% 29.71 in 10.0 mi WNW 11.5 mph - N/A   Clear
2:10 PM 37.4 °F 28.2 °F 30.2 °F 75% 29.72 in 10.0 mi WNW 16.1 mph - N/A   Clear
2:30 PM 37.4 °F 28.5 °F 30.2 °F 75% 29.72 in 10.0 mi WNW 15.0 mph - N/A   Clear
2:50 PM 37.4 °F 29.3 °F 30.2 °F 75% 29.72 in 10.0 mi WNW 12.7 mph - N/A   Clear
3:10 PM 35.6 °F 28.0 °F 30.2 °F 81% 29.73 in 10.0 mi WNW 10.4 mph - N/A   Clear
3:30 PM 37.4 °F 29.8 °F 30.2 °F 75% 29.73 in 10.0 mi WNW 11.5 mph - N/A   Clear
3:50 PM 35.6 °F 28.0 °F 30.2 °F 81% 29.74 in 10.0 mi WNW 10.4 mph - N/A   Clear
4:10 PM 35.6 °F 28.6 °F 28.4 °F 75% 29.74 in 10.0 mi WNW 9.2 mph - N/A   Clear
4:30 PM 33.8 °F 27.0 °F 28.4 °F 81% 29.74 in 10.0 mi WNW 8.1 mph - N/A   Clear
4:50 PM 33.8 °F 27.7 °F 28.4 °F 81% 29.75 in 10.0 mi WNW 6.9 mph - N/A   Clear
5:10 PM 32.0 °F 25.6 °F 28.4 °F 87% 29.75 in 10.0 mi WNW 6.9 mph - N/A   Clear
5:30 PM 32.0 °F 25.6 °F 28.4 °F 87% 29.76 in 10.0 mi West 6.9 mph - N/A   Clear
5:50 PM 30.2 °F 26.7 °F 28.4 °F 93% 29.76 in 10.0 mi West 3.5 mph - N/A   Clear
6:10 PM 30.2 °F 25.4 °F 26.6 °F 86% 29.76 in 10.0 mi WSW 4.6 mph - N/A   Clear
6:30 PM 28.4 °F 22.2 °F 26.6 °F 93% 29.76 in 10.0 mi West 5.8 mph - N/A   Clear
6:50 PM 28.4 °F 24.6 °F 26.6 °F 93% 29.77 in 10.0 mi West 3.5 mph - N/A   Clear
7:10 PM 28.4 °F 21.2 °F 26.6 °F 93% 29.76 in 10.0 mi WSW 6.9 mph - N/A   Clear
7:30 PM 30.2 °F 22.6 °F 26.6 °F 86% 29.74 in 10.0 mi SW 8.1 mph - N/A   Clear
7:50 PM 28.4 °F 21.2 °F 26.6 °F 93% 29.74 in 10.0 mi SW 6.9 mph - N/A   Clear
8:10 PM 28.4 °F 20.4 °F 26.6 °F 93% 29.75 in 10.0 mi SW 8.1 mph - N/A   Clear
8:30 PM 28.4 °F 21.2 °F 26.6 °F 93% 29.75 in 10.0 mi SW 6.9 mph - N/A   Clear
8:50 PM 28.4 °F 22.2 °F 26.6 °F 93% 29.76 in 10.0 mi WSW 5.8 mph - N/A   Clear
9:10 PM 26.6 °F 21.2 °F 26.6 °F 100% 29.76 in 10.0 mi West 4.6 mph - N/A   Clear
9:30 PM 26.6 °F 22.6 °F 24.8 °F 93% 29.75 in 10.0 mi WSW 3.5 mph - N/A   Clear
9:50 PM 28.4 °F 24.6 °F 26.6 °F 93% 29.75 in 10.0 mi WNW 3.5 mph - N/A   Clear
10:10 PM 26.6 °F - 26.6 °F 100% 29.74 in 10.0 mi Calm Calm - N/A   Clear
10:30 PM 26.6 °F - 24.8 °F 93% 29.73 in 10.0 mi Calm Calm - N/A   Clear
10:50 PM 24.8 °F - 23.0 °F 93% 29.73 in 10.0 mi Calm Calm - N/A   Clear
11:10 PM 23.0 °F 17.0 °F 21.2 °F 93% 29.72 in 10.0 mi SSE 4.6 mph - N/A   Clear
11:30 PM 23.0 °F 15.8 °F 21.2 °F 93% 29.71 in 10.0 mi SSE 5.8 mph - N/A   Clear
11:50 PM 24.8 °F 20.5 °F 23.0 °F 93% 29.71 in 10.0 mi SSE 3.5 mph - N/A   Clear